Location: Remedello Sotto
(45.2500°N, 10.3667°E)
Time: 10:51:43
(UTC+00:00)

Cosmos 1726 Rocket - Pass Details

Date: 03 February 2023
Orbit: 602 x 627 km, 82.5° (Epoch: 31 March)

Event Time Altitude Azimuth Distance (km) Brightness Sun altitude
Rises 17:23:55 0° 356° (N) 2,866 6.9 -10.1°
Reaches altitude 10° 17:26:13 10° 3° (N) 1,958 6.0 -10.5°
Maximum altitude 17:30:23 45° 77° (ENE) 823 3.8 -11.3°
Drops below altitude 10° 17:34:31 10° 151° (SSE) 1,946 5.9 -12.0°
Sets 17:36:48 0° 157° (SSE) 2,847 6.8 -12.4°
